Regional Weather Roundup
Issued by NWS

Home | Current Version | Previous Version | Text Only | Print | Product List | Glossary Off
Versions: 1 2 3 4 5 6 7 8 9 10 11 12 13 14 15 16 17 18 19 20 21 22 23 24 25 26 27 28 29 30 31 32 33 34 35 36 37 38 39 40 41 42 43 44 45 46 47 48 49 50

000
ASUS45 KABQ 220601
RWRNM
WEATHER ROUNDUP FOR NEW MEXICO
NATIONAL WEATHER SERVICE ALBUQUERQUE NM
1200 AM MDT WED OCT 22 2014

NOTE: "FAIR" MEANS FEW OR NO CLOUDS BELOW 12,000 FEET AGL WITH NO
       SIGNIFICANT WEATHER OR OBSTRUCTIONS TO VISION.

      THIS PRODUCT IS RELEASED AS TWO VERSIONS.  ONE VERSION NEAR
      THE TOP OF THE HOUR CONTAINING PRELIMINARY DATA FROM ALBUQUERQUE
      AND OTHER STATIONS.  A FINAL VERSION WITH ADDITIONAL DATA IS
      ISSUED ABOUT 10 MINUTES AFTER THE HOUR.

NMZ501-503-504-510>518-220700-
NORTHWEST PLATEAU/NORTHCENTRAL MOUNTAINS

CITY           SKY/WX    TMP DP  RH WIND       PRES   REMARKS
FARMINGTON     MOCLDY    51  42  71 NE6       30.08R
6HR MIN TEMP:  51; 6HR MAX TEMP:  65;

LOS ALAMOS     CLOUDY    51  44  77 S6        30.19S
SANTA FE       MOCLDY    53  48  83 SE7       30.15S
6HR MIN TEMP:  52; 6HR MAX TEMP:  61;

TAOS           CLOUDY    46  39  76 N5        30.18S
ANGEL FIRE     MOCLDY    43  39  86 SE6       30.22S

$$
NMZ402-403-502-505>509-220700-
WESTCENTRAL MOUNTAINS/SOUTHWEST MOUNTAINS

CITY           SKY/WX    TMP DP  RH WIND       PRES   REMARKS
GALLUP         CLEAR     47  42  83 NE3       30.14R
6HR MIN TEMP:  47; 6HR MAX TEMP:  61; 6HR PCP: TRACE;

GRANTS         CLOUDY    48  46  93 NW3       30.18S
SILVER CITY    PTCLDY    54  50  87 NE6       30.14S

$$
NMZ407-409-411-412-220700-
SOUTHERN DESERTS

CITY           SKY/WX    TMP DP  RH WIND       PRES   REMARKS
LORDSBURG      FAIR      55  52  88 MISG      30.06S
DEMING         CLOUDY    58  55  90 N6        30.07S
6HR MIN TEMP:  56; 6HR MAX TEMP:  70;

LAS CRUCES     CLEAR     58  53  82 SE5       30.09S
HOLLOMAN AFB   PTCLDY    54  52  92 N3        30.07R
T OR C         CLEAR     55  51  86 W5        30.09R
6HR MIN TEMP:  55; 6HR MAX TEMP:  67;


$$
NMZ519>523-220700-
CENTRAL VALLEYS/CENTRAL HIGHLANDS

CITY           SKY/WX    TMP DP  RH WIND       PRES   REMARKS
ALBUQUERQUE    MOCLDY    58  47  66 CALM      30.11F
6HR MIN TEMP:  56; 6HR MAX TEMP:  67;

DOUBLE EAGLE   CLOUDY    50  47  88 S3        30.13S
MORIARTY ARPT  FOG       45  43  92 CALM      30.17S VSB<1/4
6HR MIN TEMP:  45; 6HR MAX TEMP:  58;

CLINES CORNERS FOG       48  47  96 S7        30.17S VSB 1/2
6HR MIN TEMP:  48; 6HR MAX TEMP:  52; 6HR PCP: TRACE;

BELEN          NOT AVBL
SOCORRO        FAIR      54  50  87 SE5       30.10S
6HR MIN TEMP:  54; 6HR MAX TEMP:  65;


$$
NMZ524>526-539-540-220700-
SOUTHCENTRAL MOUNTAINS

CITY           SKY/WX    TMP DP  RH WIND       PRES   REMARKS
RUIDOSO        FOG       46  46 100 SE5       30.21S VSB<1/4

$$
NMZ527>531-220700-
NORTHEAST HIGHLANDS/NORTHEAST PLAINS

CITY           SKY/WX    TMP DP  RH WIND       PRES   REMARKS
LAS VEGAS      CLOUDY    49  48  97 S10       30.16F
6HR MIN TEMP:  49; 6HR MAX TEMP:  56; 6HR PCP:  0.04;

RATON          CLEAR     47  46  97 SW7       30.10F
6HR MIN TEMP:  47; 6HR MAX TEMP:  60;

CLAYTON        PTCLDY    54  48  80 SW12      30.07S
6HR MIN TEMP:  54; 6HR MAX TEMP:  65;


$$
NMZ532>537-220700-
EASTCENTRAL PLAINS

CITY           SKY/WX    TMP DP  RH WIND       PRES   REMARKS
TUCUMCARI      MOCLDY    59  54  83 SW3       30.07S
6HR MIN TEMP:  59; 6HR MAX TEMP:  62; 6HR PCP: TRACE;

CANNON AFB     NOT AVBL
CLOVIS AIRPORT CLOUDY    57  54  88 S8        30.13S

$$
NMZ028-029-538-220700-
SOUTHEAST PLAINS

CITY           SKY/WX    TMP DP  RH WIND       PRES   REMARKS
ROSWELL        CLOUDY    60  58  92 S5        30.07F
6HR MIN TEMP:  57; 6HR MAX TEMP:  63; 6HR PCP:  0.27;

CARLSBAD       MOCLDY    63  60  90 SE7       30.06F
6HR MIN TEMP:  63; 6HR MAX TEMP:  67;

HOBBS          CLOUDY    61  59  94 S7        30.11S


$$



USA.gov is the U.S. government's official web portal to all federal, state and local government web resources and services.